PIA018A OPSD-OPIS

Flight info

Callsign PIA018A
Flight time N/A
Altitude 32000
Route BIREB DCT DELDA DCT KAPMI DCT BOBAM
Aircraft A320/M-SDE3FGHIRWY/LB1

Departure

Time N/A
Airport Skardu International Airport (OPSD)

Arrival

Time 2026-05-03 20:48
Airport Islamabad International Airport (OPIS)
Time Latitude Longitude Altitude Speed Heading
2026-05-03 20:15 35.68955 74.72110 25737 ft 432 kts 246°
2026-05-03 20:15 35.67621 74.68796 26073 ft 434 kts 242°
2026-05-03 20:15 35.66218 74.65499 26404 ft 436 kts 242°
2026-05-03 20:15 35.64828 74.62230 26701 ft 438 kts 242°
2026-05-03 20:16 35.63396 74.58864 27006 ft 440 kts 241°
2026-05-03 20:16 35.61972 74.55523 27262 ft 442 kts 241°
2026-05-03 20:16 35.60538 74.52170 27556 ft 444 kts 241°
2026-05-03 20:16 35.59098 74.48810 27813 ft 445 kts 241°
2026-05-03 20:17 35.57653 74.45437 28071 ft 447 kts 241°
2026-05-03 20:17 35.56201 74.42048 28332 ft 449 kts 241°
2026-05-03 20:17 35.54744 74.38648 28580 ft 451 kts 241°
2026-05-03 20:17 35.53280 74.35242 28849 ft 452 kts 241°
2026-05-03 20:18 35.51814 74.31841 29197 ft 451 kts 241°
2026-05-03 20:18 35.50349 74.28442 29569 ft 450 kts 241°
2026-05-03 20:18 35.48890 74.25054 29946 ft 449 kts 241°
2026-05-03 20:18 35.47438 74.21678 30261 ft 448 kts 241°
2026-05-03 20:19 35.45987 74.18303 30555 ft 446 kts 241°
2026-05-03 20:19 35.44538 74.14945 30882 ft 445 kts 240°
2026-05-03 20:19 35.43093 74.11604 31179 ft 443 kts 240°
2026-05-03 20:19 35.41469 74.08411 31487 ft 440 kts 232°
2026-05-03 20:20 35.39476 74.05592 31745 ft 437 kts 224°
2026-05-03 20:20 35.37316 74.02982 31989 ft 436 kts 224°
2026-05-03 20:20 35.35155 74.00385 32058 ft 434 kts 223°
2026-05-03 20:21 35.30835 73.95229 32053 ft 433 kts 223°
2026-05-03 20:21 35.26276 73.90455 32055 ft 432 kts 208°
2026-05-03 20:22 35.20686 73.87763 32051 ft 433 kts 200°
2026-05-03 20:22 35.15020 73.85284 32074 ft 433 kts 200°
2026-05-03 20:23 35.09357 73.82809 32079 ft 432 kts 200°
2026-05-03 20:23 35.03709 73.80328 32100 ft 431 kts 200°
2026-05-03 20:24 34.98062 73.77857 32089 ft 431 kts 200°
2026-05-03 20:24 34.92410 73.75408 32096 ft 431 kts 200°
2026-05-03 20:25 34.86788 73.72897 32076 ft 430 kts 206°
2026-05-03 20:25 34.81528 73.69428 32067 ft 430 kts 208°
2026-05-03 20:26 34.76282 73.65910 32065 ft 431 kts 209°
2026-05-03 20:26 34.71038 73.62392 32030 ft 430 kts 208°
2026-05-03 20:27 34.65801 73.58880 32033 ft 430 kts 208°
2026-05-03 20:27 34.60557 73.55382 31999 ft 430 kts 207°
2026-05-03 20:28 34.55306 73.51891 31993 ft 430 kts 208°
2026-05-03 20:28 34.52695 73.50150 31449 ft 424 kts 208°
2026-05-03 20:28 34.50102 73.48419 29814 ft 429 kts 208°
2026-05-03 20:28 34.47461 73.46660 27808 ft 437 kts 209°
2026-05-03 20:29 34.44774 73.44878 25851 ft 444 kts 209°
2026-05-03 20:29 34.42066 73.43087 24488 ft 440 kts 210°
2026-05-03 20:29 34.39413 73.41334 23837 ft 430 kts 210°
2026-05-03 20:29 34.36798 73.39603 23040 ft 428 kts 210°
2026-05-03 20:30 34.34201 73.37882 22305 ft 423 kts 210°
2026-05-03 20:30 34.31634 73.36178 21586 ft 419 kts 210°
2026-05-03 20:30 34.29088 73.34487 20897 ft 416 kts 210°
2026-05-03 20:30 34.26566 73.32814 20237 ft 412 kts 210°
2026-05-03 20:31 34.24060 73.31155 19578 ft 411 kts 210°
2026-05-03 20:31 34.21556 73.29503 18942 ft 408 kts 210°
2026-05-03 20:31 34.19074 73.27870 18335 ft 406 kts 210°
2026-05-03 20:31 34.16600 73.26244 17693 ft 403 kts 210°
2026-05-03 20:32 34.14148 73.24632 17122 ft 400 kts 210°
2026-05-03 20:32 34.11720 73.23035 16553 ft 395 kts 210°
2026-05-03 20:32 34.09320 73.21453 16030 ft 391 kts 210°
2026-05-03 20:32 34.06944 73.19885 15475 ft 387 kts 210°
2026-05-03 20:33 34.04592 73.18335 14949 ft 384 kts 210°
2026-05-03 20:33 34.02250 73.16799 14420 ft 382 kts 210°
2026-05-03 20:33 33.99923 73.15274 13860 ft 380 kts 210°
2026-05-03 20:33 33.97617 73.13766 13267 ft 378 kts 209°
2026-05-03 20:34 33.95314 73.12260 12642 ft 376 kts 210°
2026-05-03 20:34 33.93025 73.10760 12032 ft 373 kts 210°
2026-05-03 20:34 33.90755 73.09271 11404 ft 371 kts 210°
2026-05-03 20:34 33.88508 73.07799 11042 ft 361 kts 210°
2026-05-03 20:35 33.86352 73.06388 10919 ft 345 kts 210°
2026-05-03 20:35 33.84287 73.05039 10787 ft 330 kts 210°
2026-05-03 20:35 33.82309 73.03749 10661 ft 317 kts 209°
2026-05-03 20:35 33.80408 73.02510 10546 ft 305 kts 210°
2026-05-03 20:36 33.78570 73.01312 10370 ft 297 kts 210°
2026-05-03 20:36 33.76770 73.00138 10254 ft 293 kts 209°
2026-05-03 20:36 33.74980 72.98970 10161 ft 293 kts 209°
2026-05-03 20:36 33.73189 72.97803 10038 ft 293 kts 209°
2026-05-03 20:37 33.71393 72.96633 9685 ft 295 kts 209°
2026-05-03 20:37 33.69591 72.95457 9315 ft 292 kts 209°
2026-05-03 20:37 33.67802 72.94290 8855 ft 293 kts 210°
2026-05-03 20:37 33.66017 72.93126 8431 ft 292 kts 209°
2026-05-03 20:38 33.64838 72.92359 8215 ft 290 kts 210°
2026-05-03 20:38 33.63067 72.91208 7774 ft 290 kts 210°
2026-05-03 20:38 33.61306 72.90065 7373 ft 288 kts 210°
2026-05-03 20:38 33.59553 72.88927 6967 ft 286 kts 209°
2026-05-03 20:39 33.57804 72.87795 6584 ft 284 kts 207°
2026-05-03 20:39 33.55915 72.87147 6146 ft 285 kts 181°
2026-05-03 20:39 33.54015 72.87649 5838 ft 279 kts 152°
2026-05-03 20:39 33.52544 72.89120 5651 ft 276 kts 126°
2026-05-03 20:40 33.51480 72.91015 5447 ft 273 kts 122°
2026-05-03 20:40 33.50453 72.92922 5246 ft 272 kts 122°
2026-05-03 20:40 33.49436 72.94825 5048 ft 268 kts 122°
2026-05-03 20:40 33.48470 72.96628 4918 ft 245 kts 122°
2026-05-03 20:41 33.47577 72.98292 4777 ft 232 kts 122°
2026-05-03 20:41 33.46719 72.99890 4692 ft 222 kts 121°
2026-05-03 20:41 33.45902 73.01407 4588 ft 212 kts 122°
2026-05-03 20:41 33.45172 73.02878 4526 ft 199 kts 110°
2026-05-03 20:42 33.45002 73.04492 4502 ft 198 kts 83°
2026-05-03 20:42 33.45558 73.05990 4444 ft 199 kts 52°
2026-05-03 20:42 33.46647 73.06890 4396 ft 187 kts 22°
2026-05-03 20:42 33.47889 73.07025 4336 ft 175 kts 352°
2026-05-03 20:43 33.48978 73.06486 4284 ft 168 kts 324°
2026-05-03 20:43 33.49779 73.05491 4250 ft 166 kts 313°
2026-05-03 20:43 33.50527 73.04448 4213 ft 165 kts 313°
2026-05-03 20:43 33.51268 73.03400 4171 ft 165 kts 307°
2026-05-03 20:44 33.51823 73.02202 4141 ft 164 kts 291°
2026-05-03 20:44 33.52119 73.00872 4056 ft 167 kts 281°
2026-05-03 20:44 33.52334 72.99504 3967 ft 167 kts 281°
2026-05-03 20:44 33.52551 72.98138 3876 ft 167 kts 282°
2026-05-03 20:45 33.52766 72.96778 3705 ft 166 kts 282°
2026-05-03 20:45 33.52982 72.95413 3492 ft 167 kts 281°
2026-05-03 20:45 33.53193 72.94072 3317 ft 162 kts 282°
2026-05-03 20:45 33.53400 72.92762 3101 ft 159 kts 282°
2026-05-03 20:46 33.53605 72.91466 2882 ft 157 kts 283°
2026-05-03 20:46 33.53807 72.90185 2681 ft 155 kts 283°
2026-05-03 20:46 33.54004 72.88928 2484 ft 152 kts 283°
2026-05-03 20:46 33.54200 72.87687 2306 ft 151 kts 283°
2026-05-03 20:47 33.54393 72.86461 2134 ft 148 kts 282°
2026-05-03 20:47 33.54581 72.85259 1938 ft 145 kts 281°
2026-05-03 20:47 33.54765 72.84074 1767 ft 141 kts 280°
2026-05-03 20:47 33.54909 72.83164 1766 ft 71 kts 281°
2026-05-03 20:48 33.54961 72.82818 1759 ft 37 kts 281°
2026-05-03 20:48 33.55008 72.82528 1759 ft 25 kts 279°
2026-05-03 20:48 33.55074 72.82453 1763 ft 12 kts 355°
2026-05-03 20:48 33.55121 72.82460 1767 ft 3 kts
2026-05-03 20:49 33.55151 72.82466 1768 ft 15 kts 10°
2026-05-03 20:49 33.55198 72.82562 1770 ft 16 kts 101°
2026-05-03 20:49 33.55173 72.82702 1768 ft 18 kts 102°
2026-05-03 20:49 33.55155 72.82857 1768 ft 20 kts 99°
2026-05-03 20:50 33.55164 72.82954 1770 ft 5 kts 40°
2026-05-03 20:50 33.55192 72.82954 1770 ft 8 kts 336°
2026-05-03 20:50 33.55235 72.82919 1769 ft 6 kts 325°
2026-05-03 20:50 33.55253 72.82904 1770 ft 0 kts 325°